FW1256 Weather Reports


Display with metric or nautical units.
time (UTC)temp
F
wind
direction
speed
MPH
gust
MPH
rain 1hr
in
rain 24hr
in
rain mn
in
humidity
%
barometer
mb
20191117174302 42 200 3.0 4.0 0.00 0.00 0.00 76 1013.5
20191117173802 42 192 2.0 3.0 0.00 0.00 0.00 77 1013.4
20191117173302 42 184 0.0 6.0 0.00 0.00 0.00 78 1013.8
20191117172802 42 149 2.0 4.0 0.00 0.00 0.00 75 1013.7
20191117172302 42 178 2.0 6.0 0.00 0.00 0.00 76 1014.1
20191117171802 41 188 1.0 4.0 0.00 0.00 0.00 77 1014.3
20191117171302 41 171 2.0 4.0 0.00 0.00 0.00 77 1014.3
20191117170802 42 187 3.0 6.0 0.00 0.00 0.00 75 1014.5
20191117170302 41 163 2.0 4.0 0.00 0.00 0.00 78 1014.5
20191117165803 40 187 2.0 5.0 0.00 0.00 0.00 79 1014.8
20191117165302 40 144 2.0 4.0 0.00 0.00 0.00 78 1014.6
20191117164802 40 165 1.0 4.0 0.00 0.00 0.00 80 1014.7
20191117164302 39 169 4.0 5.0 0.00 0.00 0.00 79 1014.6
20191117163802 39 163 4.0 6.0 0.00 0.00 0.00 79 1015.2
20191117163303 40 189 4.0 5.0 0.00 0.00 0.00 78 1015.1
20191117162802 40 183 2.0 4.0 0.00 0.00 0.00 79 1015.0
20191117162302 39 182 3.0 4.0 0.00 0.00 0.00 79 1015.0
20191117161803 39 175 1.0 4.0 0.00 0.00 0.00 79 1014.8
20191117161302 39 172 2.0 9.0 0.00 0.00 0.00 80 1015.0
20191117160803 38 156 2.0 4.0 0.00 0.00 0.00 80 1015.1
20191117160303 38 178 3.0 4.0 0.00 0.00 0.00 81 1015.3
20191117155802 38 170 2.0 4.0 0.00 0.00 0.00 81 1015.1
20191117155303 38 162 2.0 4.0 0.00 0.00 0.00 82 1015.5
20191117154802 38 148 1.0 4.0 0.00 0.00 0.00 83 1015.6
20191117154302 37 142 1.0 2.0 0.00 0.00 0.00 84 1015.5
20191117153802 37 127 1.0 2.0 0.00 0.00 0.00 83 1015.6
20191117153302 37 169 0.0 3.0 0.00 0.00 0.00 84 1015.7
20191117152802 37 176 0.0 3.0 0.00 0.00 0.00 83 1015.6
20191117152302 37 181 1.0 3.0 0.00 0.00 0.00 82 1015.6
20191117151802 36 168 2.0 4.0 0.00 0.00 0.00 82 1015.4
20191117151302 36 179 1.0 2.0 0.00 0.00 0.00 84 1015.6
20191117150803 36 160 1.0 4.0 0.00 0.00 0.00 83 1015.7
20191117150302 36 165 2.0 4.0 0.00 0.00 0.00 84 1015.6
20191117145801 35 158 1.0 3.0 0.00 0.00 0.00 85 1015.7
20191117145302 35 165 1.0 3.0 0.00 0.00 0.00 84 1016.0
20191117144802 35 157 3.0 5.0 0.00 0.00 0.00 84 1016.1
20191117144302 35 169 2.0 5.0 0.00 0.00 0.00 84 1015.9
20191117143801 35 145 2.0 3.0 0.00 0.00 0.00 85 1015.7
20191117143302 35 180 1.0 4.0 0.00 0.00 0.00 85 1016.0
20191117142802 35 169 2.0 3.0 0.00 0.00 0.00 84 1016.0
20191117142302 35 176 2.0 3.0 0.00 0.00 0.00 84 1016.1
20191117141802 35 175 1.0 4.0 0.00 0.00 0.00 85 1016.4
20191117141302 35 179 2.0 4.0 0.00 0.00 0.00 84 1016.5
20191117140802 35 171 1.0 4.0 0.00 0.00 0.00 83 1016.4
20191117140302 35 162 1.0 4.0 0.00 0.00 0.00 83 1016.4
20191117135802 35 171 1.0 3.0 0.00 0.00 0.00 84 1016.5
20191117135302 35 156 1.0 3.0 0.00 0.00 0.00 83 1016.5
20191117134802 35 152 1.0 3.0 0.00 0.00 0.00 83 1016.3
20191117134301 35 147 1.0 4.0 0.00 0.00 0.00 84 1016.5
20191117133802 35 138 0.0 2.0 0.00 0.00 0.00 84 1016.5
20191117133302 34 136 1.0 3.0 0.00 0.00 0.00 83 1016.5
20191117132802 34 126 1.0 2.0 0.00 0.00 0.00 84 1016.5
20191117132302 34 122 1.0 3.0 0.00 0.00 0.00 84 1016.2
20191117131801 34 146 2.0 4.0 0.00 0.00 0.00 85 1016.4
20191117131701 34 119 1.0 2.0 0.00 0.00 0.00 84 1016.3
20191117131432 34 126 2.0 3.0 0.00 0.00 0.00 84 1016.4
20191117131343 34 127 1.0 2.0 0.00 0.00 0.00 84 1016.5
20191117131244 34 128 1.0 3.0 0.00 0.00 0.00 84 1016.6
20191117131209 34 130 1.0 3.0 0.00 0.00 0.00 84 1016.4
20191117131119 34 130 1.0 3.0 0.00 0.00 0.00 84 1016.4
20191117130901 34 119 2.0 3.0 0.00 0.00 0.00 84 1016.6
20191117130604 34 144 0.0 2.0 0.00 0.00 0.00 84 1016.9
20191117130104 33 144 0.0 2.0 0.00 0.00 0.00 85 1016.9
20191117130014 33 137 0.0 0.0 0.00 0.00 0.00 86 1016.8
20191117125604 33 142 0.0 1.0 0.00 0.00 0.00 85 1016.9
20191117125103 33 146 0.0 1.0 0.00 0.00 0.00 85 1017.0
20191117124604 33 137 0.0 2.0 0.00 0.00 0.00 85 1017.0
20191117124104 33 134 1.0 2.0 0.00 0.00 0.00 85 1016.9
20191117123637 33 147 0.0 2.0 0.00 0.00 0.00 85 1017.1
20191117123104 33 148 1.0 2.0 0.00 0.00 0.00 85 1017.2
20191117122604 34 156 0.0 5.0 0.00 0.00 0.00 84 1017.2
20191117122104 33 182 2.0 5.0 0.00 0.00 0.00 84 1017.1
20191117121604 33 124 1.0 3.0 0.00 0.00 0.00 85 1017.1
20191117121104 33 126 0.0 3.0 0.00 0.00 0.00 85 1017.6
20191117120604 33 124 1.0 2.0 0.00 0.00 0.00 86 1017.7
20191117120104 33 117 0.0 2.0 0.00 0.00 0.00 86 1017.4
20191117115603 33 114 0.0 2.0 0.00 0.00 0.00 85 1017.4
20191117115104 32 121 0.0 2.0 0.00 0.00 0.00 86 1017.4
20191117114604 32 118 1.0 2.0 0.00 0.00 0.00 87 1017.4
20191117114104 32 124 0.0 2.0 0.00 0.00 0.00 87 1017.6
20191117113603 32 129 0.0 3.0 0.00 0.00 0.00 88 1017.7
20191117113104 32 109 0.0 1.0 0.00 0.00 0.00 88 1017.8
20191117112603 32 110 0.0 2.0 0.00 0.00 0.00 88 1017.6
20191117112104 31 110 0.0 2.0 0.00 0.00 0.00 89 1017.7
20191117111604 31 109 1.0 2.0 0.00 0.00 0.00 89 1017.9
20191117111104 31 110 0.0 1.0 0.00 0.00 0.00 88 1018.0
20191117110603 31 110 0.0 1.0 0.00 0.00 0.00 89 1018.0
20191117110104 31 111 0.0 1.0 0.00 0.00 0.00 89 1018.1
20191117105603 30 110 1.0 1.0 0.00 0.00 0.00 90 1018.1
20191117105104 30 111 0.0 1.0 0.00 0.00 0.00 90 1018.2
20191117104604 30 110 0.0 2.0 0.00 0.00 0.00 90 1018.1
20191117104103 30 111 1.0 2.0 0.00 0.00 0.00 90 1018.2
20191117103604 30 111 1.0 1.0 0.00 0.00 0.00 90 1018.3
20191117103104 30 111 0.0 1.0 0.00 0.00 0.00 90 1018.8
20191117102604 30 114 0.0 1.0 0.00 0.00 0.00 90 1018.7
20191117102104 30 113 0.0 2.0 0.00 0.00 0.00 90 1018.5
20191117101604 30 112 0.0 2.0 0.00 0.00 0.00 90 1018.4
20191117101104 30 113 1.0 2.0 0.00 0.00 0.00 89 1018.6
20191117100603 30 113 1.0 2.0 0.00 0.00 0.00 89 1018.6
20191117100104 30 113 0.0 1.0 0.00 0.00 0.00 89 1018.6
20191117095603 30 113 0.0 1.0 0.00 0.00 0.00 89 1018.8
20191117095115 30 112 0.0 2.0 0.00 0.00 0.00 89 1018.6
20191117094603 30 113 0.0 2.0 0.00 0.00 0.00 89 1018.6
20191117094105 30 112 0.0 2.0 0.00 0.00 0.00 89 1018.9
20191117093604 31 112 0.0 1.0 0.00 0.00 0.00 89 1018.9
20191117093105 31 112 0.0 2.0 0.00 0.00 0.00 89 1019.0
20191117092603 30 112 0.0 1.0 0.00 0.00 0.00 89 1019.2
20191117092104 30 112 0.0 1.0 0.00 0.00 0.00 90 1018.9
20191117091604 30 112 0.0 1.0 0.00 0.00 0.00 90 1019.2
20191117091106 30 112 0.0 1.0 0.00 0.00 0.00 90 1019.1
20191117090604 30 111 1.0 1.0 0.00 0.00 0.00 91 1019.2
20191117090104 30 112 0.0 1.0 0.00 0.00 0.00 91 1019.2
20191117085605 30 112 0.0 1.0 0.00 0.00 0.00 92 1019.4
20191117085104 29 111 0.0 0.0 0.00 0.00 0.00 92 1019.4
20191117084604 29 111 0.0 1.0 0.00 0.00 0.00 92 1019.5
20191117084104 29 111 0.0 2.0 0.00 0.00 0.00 92 1019.3
20191117083603 29 111 0.0 2.0 0.00 0.00 0.00 92 1019.4
20191117083104 29 111 0.0 1.0 0.00 0.00 0.00 92 1019.5
20191117082604 29 111 0.0 0.0 0.00 0.00 0.00 93 1019.8
20191117082103 29 111 0.0 0.0 0.00 0.00 0.00 92 1019.9
20191117081604 30 111 0.0 1.0 0.00 0.00 0.00 91 1019.7
20191117081104 30 111 0.0 1.0 0.00 0.00 0.00 91 1019.7
20191117080604 30 111 0.0 2.0 0.00 0.00 0.00 91 1019.5
20191117080103 30 112 0.0 1.0 0.00 0.00 0.00 92 1019.7
20191117075605 29 111 0.0 1.0 0.00 0.00 0.00 92 1019.7
20191117075104 29 111 0.0 1.0 0.00 0.00 0.00 92 1019.6
20191117074603 29 111 0.0 1.0 0.00 0.00 0.00 93 1019.8
20191117074104 29 111 0.0 0.0 0.00 0.00 0.00 93 1019.8
20191117073603 29 111 0.0 1.0 0.00 0.00 0.00 93 1019.8
20191117073103 28 111 0.0 1.0 0.00 0.00 0.00 93 1019.8
20191117072604 29 111 0.0 1.0 0.00 0.00 0.00 92 1019.7
20191117072104 29 111 1.0 2.0 0.00 0.00 0.00 92 1019.9
20191117071604 29 112 0.0 1.0 0.00 0.00 0.00 92 1020.2
20191117071106 29 110 0.0 1.0 0.00 0.00 0.00 92 1020.4
20191117070603 29 110 0.0 1.0 0.00 0.00 0.00 92 1020.6
20191117070104 29 109 0.0 0.0 0.00 0.00 0.00 92 1020.5
20191117065604 29 109 0.0 0.0 0.00 0.00 0.00 93 1020.5
20191117065104 29 109 0.0 0.0 0.00 0.00 0.00 93 1020.5
20191117064604 29 109 0.0 0.0 0.00 0.00 0.00 92 1020.7
20191117064103 29 110 0.0 0.0 0.00 0.00 0.00 92 1020.5
20191117063604 30 109 0.0 0.0 0.00 0.00 0.00 92 1020.7
20191117063104 30 110 0.0 1.0 0.00 0.00 0.00 92 1020.8
20191117062604 30 109 0.0 1.0 0.00 0.00 0.00 92 1020.7
20191117062104 30 109 0.0 0.0 0.00 0.00 0.00 92 1021.1
20191117061603 30 109 0.0 1.0 0.00 0.00 0.00 91 1021.0
20191117061104 30 109 0.0 1.0 0.00 0.00 0.00 91 1020.8
20191117060604 30 109 0.0 1.0 0.00 0.00 0.00 91 1020.9
20191117060107 30 109 0.0 1.0 0.00 0.00 0.00 91 1021.1
20191117055603 31 109 0.0 1.0 0.00 0.00 0.00 91 1020.9
20191117055104 31 109 0.0 1.0 0.00 0.00 0.00 90 1020.9
20191117054603 31 109 0.0 1.0 0.00 0.00 0.00 90 1021.0
20191117054104 31 109 0.0 1.0 0.00 0.00 0.00 91 1021.1
20191117053604 30 109 0.0 0.0 0.00 0.00 0.00 93 1021.1
20191117053103 31 109 0.0 0.0 0.00 0.00 0.00 91 1021.1
20191117052604 31 109 0.0 1.0 0.00 0.00 0.00 90 1020.8
20191117052103 31 109 0.0 1.0 0.00 0.00 0.00 90 1020.8
20191117051603 31 109 0.0 1.0 0.00 0.00 0.00 90 1021.0
20191117051104 31 109 0.0 1.0 0.00 0.00 0.00 90 1021.0
20191117050604 31 109 0.0 0.0 0.00 0.00 0.00 91 1021.1
20191117050104 31 109 0.0 1.0 0.00 0.00 0.00 90 1021.2
20191117045605 31 108 0.0 2.0 0.00 0.00 0.00 90 1021.1
20191117045103 31 107 0.0 2.0 0.00 0.00 0.00 91 1021.1
20191117044604 31 108 0.0 0.0 0.00 0.00 0.00 90 1021.0
20191117044104 32 108 0.0 1.0 0.00 0.00 0.00 88 1021.0
20191117043603 32 110 0.0 1.0 0.00 0.00 0.00 88 1020.8
20191117043104 32 111 0.0 1.0 0.00 0.00 0.00 88 1020.9
20191117042604 32 109 0.0 2.0 0.00 0.00 0.00 89 1021.0
20191117042104 32 110 0.0 2.0 0.00 0.00 0.00 89 1021.2
20191117041603 32 111 0.0 1.0 0.00 0.00 0.00 89 1021.0
20191117041104 32 112 0.0 2.0 0.00 0.00 0.00 88 1021.1
20191117040604 32 113 1.0 2.0 0.00 0.00 0.00 88 1021.1
20191117040104 32 112 0.0 1.0 0.00 0.00 0.00 90 1021.4
20191117035604 32 112 1.0 1.0 0.00 0.00 0.00 88 1021.3
20191117035104 32 114 0.0 2.0 0.00 0.00 0.00 88 1021.4
20191117034604 32 114 0.0 2.0 0.00 0.00 0.00 88 1021.5
20191117034104 32 115 0.0 1.0 0.00 0.00 0.00 89 1021.6
20191117033603 32 116 0.0 0.0 0.00 0.00 0.00 90 1021.5
20191117033103 32 116 0.0 1.0 0.00 0.00 0.00 88 1021.6
20191117032604 33 116 0.0 2.0 0.00 0.00 0.00 87 1021.4
20191117032104 33 117 0.0 3.0 0.00 0.00 0.00 87 1021.3
20191117031605 33 111 0.0 2.0 0.00 0.00 0.00 88 1021.4
20191117031104 32 109 0.0 3.0 0.00 0.00 0.00 89 1021.4
20191117030603 32 111 0.0 1.0 0.00 0.00 0.00 89 1021.4
20191117030104 32 112 0.0 2.0 0.00 0.00 0.00 90 1021.4
20191117025603 31 113 0.0 1.0 0.00 0.00 0.00 92 1021.5
20191117025103 31 112 0.0 0.0 0.00 0.00 0.00 92 1021.5
20191117024604 31 113 0.0 0.0 0.00 0.00 0.00 91 1021.5
20191117024103 32 112 0.0 1.0 0.00 0.00 0.00 90 1021.3
20191117023604 33 112 0.0 2.0 0.00 0.00 0.00 88 1021.3
20191117023104 33 112 0.0 2.0 0.00 0.00 0.00 88 1021.3
20191117022603 33 113 0.0 2.0 0.00 0.00 0.00 88 1021.4
20191117022104 33 112 0.0 2.0 0.00 0.00 0.00 89 1021.2
20191117021604 31 113 1.0 5.0 0.00 0.00 0.00 90 1021.3
20191117021104 32 113 1.0 5.0 0.00 0.00 0.00 90 1021.1
20191117020604 30 117 0.0 1.0 0.00 0.00 0.00 95 1021.2
20191117020104 30 117 0.0 0.0 0.00 0.00 0.00 95 1021.3
20191117015603 29 117 0.0 0.0 0.00 0.00 0.00 95 1021.6
20191117015219 30 117 0.0 0.0 0.00 0.00 0.00 93 1021.7
20191117014835 30 117 0.0 0.0 0.00 0.00 0.00 93 1022.1
20191117014339 31 117 0.0 0.0 0.00 0.00 0.00 92 1021.8
20191117013104 32 117 0.0 1.0 0.00 0.00 0.00 88 1022.2
20191117012603 32 117 0.0 1.0 0.00 0.00 0.00 88 1022.0
20191117012104 32 118 0.0 0.0 0.00 0.00 0.00 89 1022.2
20191117011604 32 118 0.0 0.0 0.00 0.00 0.00 89 1022.2
20191117011103 33 118 0.0 0.0 0.00 0.00 0.00 88 1022.3
20191117010604 33 117 0.0 0.0 0.00 0.00 0.00 88 1022.3
20191117010104 33 118 0.0 0.0 0.00 0.00 0.00 87 1022.3
20191117005603 33 113 0.0 1.0 0.00 0.00 0.00 86 1022.2
20191117005104 34 113 0.0 1.0 0.00 0.00 0.00 85 1022.2
20191117004603 34 118 0.0 0.0 0.00 0.00 0.00 85 1022.4
20191117004104 34 118 0.0 0.0 0.00 0.00 0.00 85 1022.3
20191117003604 34 113 0.0 0.0 0.00 0.00 0.00 86 1022.4
20191117003104 33 115 0.0 0.0 0.00 0.00 0.00 88 1022.2
20191117002604 34 115 0.0 0.0 0.00 0.00 0.00 87 1022.4
20191117002104 34 117 0.0 0.0 0.00 0.00 0.00 86 1022.3
20191117001604 35 117 0.0 1.0 0.00 0.00 0.00 84 1022.4
20191117001103 35 117 0.0 1.0 0.00 0.00 0.00 83 1022.3
20191117000604 36 117 0.0 1.0 0.00 0.00 0.00 83 1022.1
20191117000104 36 117 0.0 1.0 0.00 0.00 0.00 82 1022.3
20191116235604 36 118 0.0 1.0 0.00 0.00 0.00 82 1022.4
20191116235104 36 117 1.0 1.0 0.00 0.00 0.00 82 1022.5
20191116234603 36 118 0.0 1.0 0.00 0.00 0.00 82 1022.4
20191116234104 36 117 0.0 1.0 0.00 0.00 0.00 82 1022.5
20191116233604 36 116 0.0 1.0 0.00 0.00 0.00 82 1022.5
20191116233104 36 114 0.0 0.0 0.00 0.00 0.00 82 1022.4
20191116232603 37 117 0.0 0.0 0.00 0.00 0.00 81 1022.5
20191116232104 37 117 0.0 0.0 0.00 0.00 0.00 81 1022.3
20191116231604 37 115 0.0 1.0 0.00 0.00 0.00 80 1022.2
20191116231103 37 117 0.0 1.0 0.00 0.00 0.00 79 1022.3
20191116230604 37 117 0.0 1.0 0.00 0.00 0.00 78 1022.3
20191116230104 38 117 0.0 0.0 0.00 0.00 0.00 77 1022.2
20191116225604 38 116 0.0 1.0 0.00 0.00 0.00 77 1022.5
20191116225103 39 116 0.0 1.0 0.00 0.00 0.00 76 1022.2
20191116224604 39 116 0.0 0.0 0.00 0.00 0.00 74 1022.5
20191116224104 40 115 0.0 2.0 0.00 0.00 0.00 73 1022.2
20191116223603 40 104 0.0 3.0 0.00 0.00 0.00 72 1022.2
20191116223104 41 111 0.0 2.0 0.00 0.00 0.00 71 1022.1
20191116222603 41 108 0.0 2.0 0.00 0.00 0.00 71 1022.3
20191116222104 41 109 0.0 2.0 0.00 0.00 0.00 70 1022.3
20191116221604 42 110 1.0 3.0 0.00 0.00 0.00 69 1022.4
20191116221104 42 91 1.0 3.0 0.00 0.00 0.00 68 1022.4
20191116220604 43 115 0.0 2.0 0.00 0.00 0.00 67 1022.6
20191116220103 43 116 0.0 2.0 0.00 0.00 0.00 67 1022.8
20191116215603 43 111 1.0 5.0 0.00 0.00 0.00 66 1022.8
20191116215104 43 113 2.0 5.0 0.00 0.00 0.00 64 1023.0
20191116214603 43 114 1.0 2.0 0.00 0.00 0.00 65 1023.0
20191116214104 44 102 1.0 3.0 0.00 0.00 0.00 63 1023.2
20191116213603 44 100 2.0 5.0 0.00 0.00 0.00 63 1023.2
20191116213103 44 135 2.0 5.0 0.00 0.00 0.00 63 1023.3
20191116212604 44 85 1.0 6.0 0.00 0.00 0.00 62 1023.2
20191116212104 45 137 1.0 3.0 0.00 0.00 0.00 64 1023.1
20191116211604 45 118 1.0 3.0 0.00 0.00 0.00 62 1023.1
20191116211103 46 150 0.0 2.0 0.00 0.00 0.00 60 1023.3
20191116210603 46 125 1.0 3.0 0.00 0.00 0.00 60 1023.1
20191116210104 46 107 1.0 3.0 0.00 0.00 0.00 60 1023.0
20191116205604 46 14 0.0 5.0 0.00 0.00 0.00 60 1023.4
20191116205103 46 112 1.0 5.0 0.00 0.00 0.00 60 1023.3
20191116204604 46 117 1.0 3.0 0.00 0.00 0.00 60 1023.4
20191116204104 46 115 1.0 3.0 0.00 0.00 0.00 59 1023.5
20191116203604 46 91 1.0 6.0 0.00 0.00 0.00 61 1023.5
20191116203103 46 124 1.0 3.0 0.00 0.00 0.00 61 1023.6
20191116202604 46 164 1.0 3.0 0.00 0.00 0.00 57 1023.5
20191116202104 46 166 1.0 2.0 0.00 0.00 0.00 58 1023.9
20191116201604 46 139 1.0 3.0 0.00 0.00 0.00 60 1023.8
20191116201104 46 124 1.0 6.0 0.00 0.00 0.00 58 1023.9
20191116200604 45 62 3.0 6.0 0.00 0.00 0.00 59 1023.9
20191116200104 46 91 1.0 5.0 0.00 0.00 0.00 60 1024.0
20191116195603 46 138 1.0 3.0 0.00 0.00 0.00 61 1024.0
20191116195104 47 140 1.0 3.0 0.00 0.00 0.00 60 1024.2
20191116194604 47 113 1.0 5.0 0.00 0.00 0.00 63 1024.3
20191116194104 46 177 0.0 3.0 0.00 0.00 0.00 58 1024.2
20191116193604 46 154 1.0 3.0 0.00 0.00 0.00 61 1024.4
20191116193104 44 147 1.0 3.0 0.00 0.00 0.00 64 1024.5
20191116192603 44 122 1.0 6.0 0.00 0.00 0.00 62 1024.4
20191116192103 44 128 1.0 3.0 0.00 0.00 0.00 64 1024.6
20191116191604 44 156 1.0 2.0 0.00 0.00 0.00 61 1024.6
20191116191106 44 124 1.0 2.0 0.00 0.00 0.00 64 1024.8
20191116190604 44 162 1.0 3.0 0.00 0.00 0.00 63 1024.8
20191116190104 44 106 1.0 3.0 0.00 0.00 0.00 64 1024.8
20191116185604 44 123 1.0 3.0 0.00 0.00 0.00 66 1025.0
20191116185103 44 158 1.0 3.0 0.00 0.00 0.00 66 1025.1
20191116184603 43 168 1.0 3.0 0.00 0.00 0.00 64 1025.1
20191116184113 43 174 1.0 3.0 0.00 0.00 0.00 67 1025.3
20191116183603 43 162 1.0 3.0 0.00 0.00 0.00 66 1025.3
20191116183103 43 130 1.0 3.0 0.00 0.00 0.00 68 1025.3
20191116182604 43 144 0.0 3.0 0.00 0.00 0.00 65 1025.4
20191116182105 43 69 2.0 3.0 0.00 0.00 0.00 67 1025.5
20191116181604 44 159 2.0 2.0 0.00 0.00 0.00 67 1025.4
20191116181104 43 141 1.0 2.0 0.00 0.00 0.00 69 1025.5
20191116180604 43 158 1.0 3.0 0.00 0.00 0.00 67 1025.7
20191116180113 43 168 2.0 3.0 0.00 0.00 0.00 66 1025.8
20191116175604 44 189 1.0 3.0 0.00 0.00 0.00 65 1025.6
20191116175111 43 174 2.0 3.0 0.00 0.00 0.00 67 1026.0